This is the latest recevied weather packets stored in our database for station/object VA2CPJ. If no packets are shown the sender has not sent any weather packets the latest 10 day(s).
| Time | Temp. | Humidity | Pressure | Rain* | Wind** | Luminosity | Snow |
|---|---|---|---|---|---|---|---|
| 1777945821 | 8.33° C | 81% | 1013.7 hPa | - | - | 0 W/m² | - |
| 1777944954 | 8.33° C | 80% | 1014.7 hPa | - | - | 0 W/m² | - |
| 1777944919 | 8.33° C | 81% | 1014.3 hPa | - | - | 0 W/m² | - |
| 1777944325 | 8.33° C | 80% | 1014.3 hPa | - | - | 0 W/m² | - |
| 1777944072 | 8.33° C | 80% | 1013.7 hPa | - | - | 0 W/m² | - |
| 1777943423 | 8.33° C | 80% | 1013.7 hPa | - | - | 0 W/m² | - |
| 1777942521 | 8.89° C | 77% | 1014.7 hPa | - | - | 0 W/m² | - |
| 1777941999 | 9.44° C | 76% | 1014.3 hPa | - | - | 0 W/m² | - |
| 1777941962 | 9.44° C | 76% | 1014.7 hPa | - | - | 0 W/m² | - |
| 1777939827 | 9.44° C | 75% | 1013.3 hPa | - | - | 111 W/m² | - |
| 1777939243 | 9.44° C | 74% | 1013.3 hPa | - | - | 340 W/m² | - |
| 1777938934 | 9.44° C | 74% | 1014 hPa | - | - | 443 W/m² | - |
| 1777938350 | 9.44° C | 74% | 1014.3 hPa | - | - | 1174 W/m² | - |
| 1777937773 | 10° C | 73% | 1014 hPa | - | - | 1918 W/m² | - |
| 1777937440 | 10° C | 73% | 1013.3 hPa | - | - | - | - |
| 1777937376 | 10° C | 73% | 1014 hPa | - | - | - | - |
| 1777936222 | 10° C | 72% | 1013 hPa | - | - | - | - |
| 1777935933 | 10° C | 72% | 1013.7 hPa | - | - | - | - |
| 1777935321 | 10° C | 72% | 1014 hPa | - | - | - | - |
| 1777934787 | 10° C | 72% | 1013.7 hPa | - | - | - | - |
| 1777934726 | 10° C | 72% | 1013.7 hPa | - | - | - | - |
| 1777933573 | 10° C | 72% | 1013.3 hPa | - | - | - | - |
| 1777933255 | 10° C | 72% | 1013 hPa | - | - | - | - |
| 1777932931 | 10° C | 72% | 1013.7 hPa | - | - | - | - |
| 1777931278 | 10° C | 74% | 1013.3 hPa | - | - | - | - |
* Rain since midnight (hover to see other rain measurements)
** Current wind speed in m/s (hover to see current wind gust speed)